QPF
0.01 0.01 0.00 0.00 0.00 0.00 0.00 0.00 0.00 0.00 0.00 0.00 0.00 0.00 0.00 0.00 0.00 0.00 0.00 0.00 0.00 0.00 0.00 0.00 0.00 0.00 0.00 0.00 0.00 0.00 0.00 0.00 0.00 0.00 0.00 0.00 0.00 0.00 0.00 0.00 0.00 0.00 0.00 0.00
0.00 0.00 0.00 0.00 0.00 0.00 0.00 0.00 0.00 0.00 0.00 0.00 0.00 0.00 0.00 0.00 0.00 0.00 0.00 0.00 0.00 0.00 0.00 0.00 0.00 0.00 0.00 0.00 0.00 0.00 0.00 0.00 0.00 0.00 0.00 0.00 0.00 0.00 0.00 0.00 0.00 0.00 0.00 0.00
0.02 0.00 0.00 0.01 0.00 0.00 0.00 0.00 0.00 0.00 0.00 0.00 0.00 0.00 0.00 0.00 0.00 0.00 0.00 0.00 0.00 0.00 0.00 0.00 0.00 0.00 0.00 0.00 0.00 0.00 0.00 0.00 0.00 0.00 0.00 0.00 0.00 0.00 0.00 0.00 0.00 0.00 0.00 0.00
0.00 0.00 0.05 0.02 0.00 0.00 0.00 0.00 0.00 0.00 0.00 0.00 0.00 0.00 0.00 0.00 0.00 0.00 0.00 0.00 0.00 0.00 0.00 0.00 0.00 0.00 0.00 0.00 0.00 0.00 0.00 0.00 0.00 0.00 0.00 0.00 0.00 0.00 0.00 0.00 0.00 0.00 0.00 0.00
0.04 0.02 0.01 0.00 0.00 0.00 0.00 0.00 0.00 0.00 0.00 0.00 0.00 0.00 0.00 0.00 0.00 0.00 0.00 0.00 0.00 0.00 0.00 0.00 0.00 0.00 0.00 0.00 0.00 0.00 0.00 0.00 0.00 0.00 0.00 0.00 0.00 0.00 0.00 0.00 0.00 0.00 0.00 0.00
0.03 0.03 0.02 0.00 0.00 0.00 0.00 0.00 0.00 0.00 0.00 0.00 0.00 0.00 0.00 0.00 0.00 0.00 0.00 0.00 0.00 0.00 0.00 0.00 0.00 0.00 0.00 0.00 0.00 0.00 0.00 0.00 0.00 0.00 0.00 0.00 0.00 0.00 0.00 0.00 0.00 0.00 0.00 0.00
0.03 0.03 0.00 0.00 0.00 0.00 0.00 0.00 0.00 0.00 0.00 0.00 0.00 0.00 0.00 0.00 0.00 0.00 0.00 0.00 0.00 0.00 0.00 0.00 0.00 0.00 0.00 0.00 0.00 0.00 0.00 0.00 0.00 0.00 0.00 0.00 0.00 0.00 0.00 0.00 0.00 0.00 0.00 0.00
0.06 0.09 0.01 0.00 0.00 0.00 0.00 0.00 0.00 0.00 0.00 0.00 0.00 0.00 0.00 0.00 0.00 0.00 0.00 0.00 0.00 0.00 0.00 0.00 0.00 0.00 0.00 0.00 0.00 0.00 0.00 0.00 0.00 0.00 0.00 0.00 0.00 0.00 0.00 0.00 0.00 0.00 0.00 0.00
0.01 0.03 0.00 0.00 0.00 0.00 0.00 0.00 0.00 0.00 0.00 0.00 0.00 0.00 0.00 0.00 0.00 0.00 0.00 0.00 0.00 0.00 0.00 0.00 0.00 0.00 0.00 0.00 0.00 0.00 0.00 0.00 0.00 0.00 0.00 0.00 0.00 0.00 0.00 0.00 0.00 0.00 0.00 0.00
0.00 0.00 0.00 0.00 0.00 0.00 0.00 0.00 0.00 0.00 0.00 0.00 0.00 0.00 0.00 0.00 0.00 0.00 0.00 0.00 0.00 0.00 0.00 0.00 0.00 0.00 0.00 0.00 0.00 0.00 0.00 0.00 0.00 0.00 0.00 0.00 0.00 0.00 0.00 0.00 0.00 0.00 0.00 0.00
0.00 0.00 0.00 0.00 0.00 0.00 0.00 0.00 0.00 0.00 0.00 0.00 0.00 0.00 0.00 0.00 0.00 0.00 0.00 0.00 0.00 0.00 0.00 0.00 0.00 0.00 0.00 0.00 0.00 0.00 0.00 0.00 0.00 0.00 0.00 0.00 0.00 0.00 0.00 0.00 0.00 0.00 0.00 0.00
0.00 0.00 0.00 0.00 0.00 0.00 0.00 0.00 0.00 0.00 0.00 0.00 0.00 0.00 0.00 0.00 0.00 0.00 0.00 0.00 0.00 0.00 0.00 0.00 0.00 0.00 0.00 0.00 0.00 0.00 0.00 0.00 0.00 0.00 0.00 0.00 0.00 0.00 0.00 0.00 0.00 0.00 0.00 0.00
0.00 0.00 0.00 0.00 0.00 0.00 0.00 0.00 0.00 0.00 0.00 0.00 0.00 0.00 0.00 0.00 0.00 0.00 0.00 0.00 0.00 0.00 0.00 0.00 0.00 0.00 0.00 0.00 0.00 0.00 0.00 0.00 0.00 0.00 0.00 0.00 0.00 0.00 0.00 0.00 0.00 0.00 0.00 0.00
0.00 0.00 0.00 0.00 0.00 0.00 0.00 0.00 0.00 0.00 0.00 0.00 0.00 0.00 0.00 0.00 0.00 0.00 0.00 0.00 0.00 0.00 0.00 0.00 0.00 0.00 0.00 0.00 0.00 0.00 0.00 0.00 0.00 0.00 0.00 0.00 0.00 0.00 0.00 0.00 0.00 0.00 0.00 0.00
0.00 0.00 0.00 0.00 0.00 0.00 0.00 0.00 0.00 0.00 0.00 0.00 0.00 0.00 0.00 0.00 0.00 0.00 0.00 0.00 0.00 0.00 0.00 0.00 0.00 0.00 0.00 0.00 0.00 0.00 0.00 0.00 0.00 0.00 0.00 0.00 0.00 0.00 0.00 0.00 0.00 0.00 0.00 0.00
0.00 0.00 0.00 0.00 0.00 0.00 0.00 0.00 0.00 0.00 0.00 0.00 0.00 0.00 0.00 0.00 0.00 0.00 0.00 0.00 0.00 0.00 0.00 0.00 0.00 0.00 0.00 0.00 0.00 0.00 0.00 0.00 0.00 0.00 0.00 0.00 0.00 0.00 0.00 0.00 0.00 0.00 0.00 0.00
0.00 0.00 0.00 0.00 0.00 0.00 0.00 0.00 0.00 0.00 0.00 0.00 0.00 0.00 0.00 0.00 0.00 0.00 0.00 0.00 0.00 0.00 0.00 0.00 0.00 0.00 0.00 0.00 0.00 0.00 0.00 0.00 0.00 0.00 0.00 0.00 0.00 0.00 0.00 0.00 0.00 0.00 0.00 0.00
0.00 0.02 0.03 0.01 0.00 0.00 0.00 0.00 0.00 0.00 0.00 0.00 0.00 0.00 0.00 0.00 0.00 0.00 0.00 0.00 0.00 0.00 0.00 0.00 0.00 0.00 0.00 0.00 0.00 0.00 0.00 0.00 0.00 0.00 0.00 0.00 0.00 0.00 0.00 0.00 0.00 0.00 0.00 0.00
0.01 0.01 0.02 0.03 0.02 0.01 0.01 0.00 0.00 0.00 0.00 0.00 0.00 0.00 0.00 0.00 0.00 0.00 0.00 0.00 0.00 0.00 0.00 0.00 0.00 0.00 0.00 0.00 0.00 0.00 0.00 0.00 0.00 0.00 0.00 0.00 0.00 0.00 0.00 0.00 0.00 0.00 0.00 0.00
0.00 0.00 0.01 0.01 0.00 0.00 0.00 0.00 0.00 0.00 0.00 0.00 0.00 0.00 0.00 0.00 0.00 0.00 0.00 0.00 0.00 0.00 0.00 0.00 0.00 0.00 0.00 0.00 0.00 0.00 0.00 0.00 0.00 0.00 0.00 0.00 0.00 0.00 0.00 0.00 0.00 0.00 0.00 0.00
0.00 0.00 0.00 0.00 0.00 0.00 0.00 0.00 0.00 0.00 0.00 0.00 0.00 0.00 0.00 0.00 0.00 0.00 0.00 0.00 0.00 0.00 0.00 0.00 0.00 0.01 0.01 0.00 0.00 0.00 0.00 0.00 0.00 0.00 0.00 0.00 0.00 0.00 0.00 0.00 0.00 0.00 0.00 0.00
0.00 0.00 0.00 0.00 0.00 0.00 0.00 0.00 0.00 0.00 0.00 0.00 0.00 0.00 0.00 0.00 0.00 0.00 0.00 0.00 0.00 0.00 0.00 0.00 0.00 0.00 0.00 0.00 0.00 0.00 0.00 0.00 0.00 0.00 0.00 0.00 0.00 0.00 0.00 0.00 0.00 0.00 0.00 0.00
0.00 0.00 0.00 0.00 0.00 0.00 0.00 0.00 0.00 0.00 0.00 0.00 0.00 0.00 0.00 0.00 0.00 0.00 0.00 0.00 0.00 0.00 0.00 0.00 0.00 0.00 0.00 0.00 0.00 0.00 0.00 0.00 0.00 0.00 0.00 0.00 0.00 0.00 0.00 0.00 0.00 0.00 0.00 0.00
0.00 0.00 0.00 0.00 0.00 0.00 0.00 0.00 0.00 0.00 0.00 0.00 0.00 0.00 0.00 0.00 0.00 0.00 0.00 0.00 0.00 0.00 0.00 0.00 0.00 0.00 0.00 0.00 0.00 0.00 0.00 0.00 0.00 0.01 0.00 0.00 0.00 0.00 0.00 0.00 0.00 0.00 0.00 0.00
0.00 0.00 0.00 0.00 0.00 0.00 0.00 0.00 0.00 0.00 0.00 0.00 0.00 0.00 0.00 0.00 0.00 0.00 0.00 0.00 0.00 0.00 0.00 0.00 0.00 0.00 0.00 0.00 0.00 0.00 0.00 0.00 0.00 0.00 0.00 0.00 0.00 0.00 0.00 0.00 0.00 0.00 0.00 0.00
0.00 0.00 0.00 0.00 0.00 0.00 0.00 0.00 0.00 0.00 0.00 0.00 0.00 0.00 0.00 0.00 0.00 0.00 0.00 0.00 0.00 0.00 0.00 0.00 0.00 0.00 0.00 0.00 0.00 0.00 0.00 0.00 0.00 0.00 0.00 0.00 0.00 0.00 0.00 0.00 0.00 0.00 0.00 0.00
0.00 0.00 0.00 0.00 0.00 0.00 0.00 0.00 0.00 0.00 0.00 0.00 0.00 0.00 0.01 0.00 0.00 0.00 0.00 0.00 0.00 0.00 0.00 0.00 0.00 0.00 0.00 0.00 0.00 0.00 0.00 0.00 0.00 0.00 0.00 0.00 0.00 0.00 0.00 0.00 0.00 0.00 0.00 0.00
MSLP
1011.00 1010.54 1009.70 1008.77 1008.70 1009.18 1009.73 1010.43 1011.23 1011.28 1011.11 1011.04 1011.00 1010.94 1011.19 1011.80 1013.08 1014.88 1016.35 1017.75 1018.90 1020.11 1021.27 1022.27 1023.24 1024.18 1025.04 1025.49 1026.00 1026.15 1026.70 1026.83 1027.08 1027.13 1027.23 1027.13 1026.87 1026.66 1026.27 1026.20 1026.23 1025.69 1025.07 1024.66
1011.58 1011.00 1010.23 1009.46 1009.19 1009.18 1009.65 1010.08 1010.31 1010.59 1010.47 1010.52 1010.33 1010.64 1011.24 1011.79 1013.04 1014.46 1015.61 1016.87 1018.16 1019.37 1020.61 1021.70 1022.69 1023.64 1024.55 1025.25 1025.76 1026.19 1026.81 1027.16 1027.10 1027.38 1027.39 1027.38 1027.24 1027.11 1026.83 1026.77 1026.74 1026.25 1025.81 1025.35
1011.85 1011.00 1010.55 1009.83 1008.60 1009.10 1009.47 1009.55 1009.73 1009.87 1009.46 1009.74 1010.28 1010.48 1010.51 1011.44 1012.66 1013.65 1014.86 1016.04 1017.36 1018.49 1019.72 1020.95 1021.96 1022.84 1023.87 1024.68 1025.34 1026.13 1026.59 1027.01 1027.22 1027.47 1027.54 1027.49 1027.45 1027.45 1027.52 1027.34 1027.10 1026.89 1026.46 1026.01
1012.01 1011.37 1010.39 1008.49 1008.07 1008.36 1008.99 1009.01 1009.17 1008.93 1009.07 1009.38 1009.97 1010.66 1011.06 1011.39 1012.14 1013.47 1014.62 1015.80 1017.01 1018.06 1019.24 1020.38 1021.45 1022.52 1023.41 1024.28 1025.18 1025.70 1026.20 1026.91 1027.22 1027.44 1027.55 1027.53 1027.56 1027.71 1027.85 1027.80 1027.50 1027.39 1027.15 1026.65
1012.52 1011.64 1010.28 1008.38 1008.05 1008.33 1008.54 1007.66 1008.22 1008.63 1009.07 1009.76 1010.84 1011.62 1012.41 1012.38 1012.74 1013.55 1014.31 1015.31 1016.36 1017.39 1018.70 1019.94 1020.98 1022.01 1023.00 1024.12 1024.83 1025.31 1025.93 1026.41 1026.74 1027.10 1027.39 1027.44 1027.72 1027.89 1028.07 1028.10 1028.02 1027.61 1027.57 1027.39
1012.24 1011.46 1010.07 1007.93 1007.08 1007.04 1007.90 1007.59 1007.43 1007.84 1008.97 1010.43 1011.54 1012.86 1013.19 1013.47 1013.85 1014.32 1014.96 1015.72 1016.74 1017.85 1018.85 1019.89 1020.91 1021.68 1022.78 1023.65 1024.37 1025.03 1025.59 1025.97 1026.36 1026.64 1026.76 1027.04 1027.27 1027.52 1027.93 1028.21 1028.23 1028.10 1028.00 1027.99
1011.27 1010.62 1009.29 1007.77 1006.97 1006.96 1008.00 1007.42 1006.70 1007.61 1008.88 1010.54 1011.76 1012.68 1012.92 1013.94 1014.79 1015.32 1015.86 1016.43 1017.37 1018.08 1018.87 1019.80 1020.71 1021.64 1022.66 1023.37 1024.08 1024.55 1025.13 1025.70 1026.16 1026.45 1026.59 1026.74 1026.95 1027.13 1027.57 1028.02 1028.31 1028.42 1028.46 1028.47
1010.55 1009.96 1008.86 1007.04 1007.06 1007.03 1006.96 1006.67 1006.92 1007.89 1009.05 1010.85 1012.00 1013.16 1013.98 1014.65 1015.40 1016.01 1016.64 1017.48 1018.15 1018.83 1019.77 1020.28 1020.85 1021.59 1022.68 1023.38 1024.06 1024.45 1025.00 1025.62 1026.04 1026.34 1026.64 1026.75 1026.86 1027.02 1027.19 1027.72 1028.12 1028.42 1028.59 1028.79
1008.87 1007.92 1007.31 1006.64 1006.34 1006.09 1006.39 1006.93 1007.65 1008.43 1009.85 1010.75 1012.16 1013.31 1014.24 1014.95 1015.67 1016.44 1017.08 1017.88 1018.75 1019.19 1020.33 1020.83 1021.08 1021.49 1022.51 1023.41 1023.93 1024.51 1025.16 1025.79 1026.08 1026.42 1026.74 1026.93 1027.14 1027.36 1027.44 1027.67 1028.07 1028.52 1029.00 1029.27
1008.18 1007.36 1007.03 1006.76 1006.59 1006.30 1006.36 1006.78 1007.50 1008.35 1009.74 1010.85 1011.76 1013.06 1013.95 1014.83 1015.64 1016.47 1017.31 1018.12 1018.89 1019.75 1020.48 1021.20 1021.42 1021.76 1022.04 1023.12 1023.74 1024.35 1025.08 1025.75 1026.20 1026.58 1027.10 1027.30 1027.51 1027.70 1027.86 1028.13 1028.33 1028.79 1029.40 1029.63
1007.31 1006.98 1006.88 1006.61 1006.59 1006.81 1006.89 1007.04 1007.48 1008.30 1008.95 1010.09 1011.26 1012.52 1013.18 1014.34 1015.29 1016.18 1017.02 1017.88 1018.66 1019.44 1020.21 1020.88 1021.50 1022.00 1022.51 1023.06 1023.60 1024.33 1024.99 1025.54 1026.00 1026.49 1027.05 1027.55 1027.79 1027.91 1028.10 1028.35 1028.25 1028.78 1029.51 1029.65
1006.84 1006.53 1006.40 1006.49 1006.28 1006.45 1006.86 1007.10 1007.26 1007.79 1008.79 1009.68 1010.50 1011.43 1012.58 1013.71 1014.65 1015.59 1016.50 1017.38 1018.33 1019.14 1019.80 1020.57 1021.28 1021.94 1022.53 1023.03 1023.50 1024.10 1024.79 1025.36 1025.84 1026.51 1027.02 1027.49 1027.74 1028.00 1027.97 1028.06 1028.31 1028.68 1029.14 1029.25
1006.08 1005.83 1006.05 1006.08 1006.09 1006.10 1006.48 1006.60 1006.93 1007.54 1008.23 1009.20 1010.10 1011.01 1012.10 1013.09 1013.94 1014.85 1015.83 1016.74 1017.62 1018.32 1019.13 1019.98 1020.77 1021.49 1022.11 1022.64 1023.17 1023.67 1024.19 1024.82 1025.48 1026.16 1026.81 1027.33 1027.76 1027.94 1028.08 1028.45 1028.49 1028.71 1028.96 1029.06
1005.67 1005.92 1005.90 1006.02 1006.16 1006.06 1006.19 1006.54 1006.78 1007.22 1007.80 1008.56 1009.42 1010.58 1011.63 1012.56 1013.54 1014.30 1015.10 1015.92 1016.93 1017.80 1018.65 1019.40 1020.19 1020.88 1021.48 1022.17 1022.86 1023.38 1023.87 1024.32 1024.95 1025.65 1026.22 1026.91 1027.51 1027.90 1028.12 1028.45 1028.88 1029.19 1029.20 1029.45
1004.96 1005.13 1005.22 1005.03 1005.46 1005.88 1006.18 1006.66 1007.15 1007.66 1008.15 1008.98 1009.61 1010.38 1011.43 1012.30 1012.94 1013.66 1014.57 1015.50 1016.45 1017.43 1018.31 1019.05 1019.76 1020.44 1021.08 1021.78 1022.42 1023.03 1023.53 1024.13 1024.57 1025.16 1025.79 1026.45 1027.11 1027.62 1028.07 1028.52 1029.01 1029.45 1029.75 1030.08
1004.22 1004.54 1004.89 1005.16 1005.33 1005.77 1006.23 1006.81 1007.36 1008.07 1008.50 1009.30 1009.91 1010.61 1011.20 1011.72 1012.53 1013.42 1014.21 1015.13 1016.16 1017.08 1017.78 1018.48 1019.17 1019.79 1020.49 1021.17 1021.85 1022.54 1023.10 1023.59 1024.24 1024.86 1025.46 1026.05 1026.50 1027.16 1027.75 1028.33 1028.93 1029.47 1029.91 1030.27
1004.06 1004.58 1004.69 1004.98 1005.49 1005.97 1006.37 1006.74 1007.47 1008.21 1008.90 1009.61 1010.19 1010.69 1011.35 1012.32 1013.16 1013.75 1014.32 1014.80 1015.44 1016.33 1017.10 1017.84 1018.60 1019.37 1020.07 1020.74 1021.39 1022.14 1022.79 1023.48 1023.93 1024.61 1025.12 1025.67 1026.20 1026.70 1027.22 1027.89 1028.62 1029.31 1029.90 1030.15
1003.74 1004.04 1004.34 1004.49 1005.25 1006.09 1006.93 1007.46 1008.08 1008.60 1009.32 1010.02 1010.71 1011.16 1012.07 1012.83 1013.42 1014.04 1014.64 1015.15 1016.02 1016.85 1017.28 1017.58 1018.28 1019.12 1019.89 1020.51 1021.13 1021.86 1022.47 1023.17 1023.81 1024.35 1024.89 1025.50 1026.05 1026.53 1027.14 1027.79 1028.57 1029.23 1029.87 1030.22
1004.01 1004.39 1004.70 1004.87 1005.71 1006.38 1007.40 1008.38 1009.04 1009.48 1010.13 1010.78 1011.43 1012.26 1012.67 1013.19 1013.81 1014.51 1014.92 1015.52 1016.30 1017.05 1017.74 1017.79 1018.30 1019.03 1019.84 1020.50 1021.07 1021.76 1022.42 1023.09 1023.67 1024.27 1024.78 1025.52 1026.14 1026.72 1027.32 1027.84 1028.41 1028.95 1029.57 1030.14
1005.18 1005.51 1005.64 1006.22 1007.29 1007.86 1008.84 1009.56 1009.98 1010.63 1011.22 1011.63 1012.40 1013.16 1013.96 1014.47 1014.80 1015.11 1015.37 1016.13 1016.38 1016.55 1017.31 1017.87 1018.50 1019.21 1019.89 1020.55 1021.14 1021.84 1022.51 1023.18 1023.75 1024.41 1024.99 1025.59 1026.21 1026.85 1027.38 1027.79 1028.33 1028.86 1029.36 1029.92
1006.49 1007.01 1007.18 1007.73 1008.95 1009.59 1009.93 1010.37 1010.79 1011.49 1012.04 1012.47 1012.99 1013.79 1014.40 1015.22 1015.19 1015.41 1016.01 1016.62 1017.18 1017.19 1017.57 1018.12 1018.70 1019.47 1020.13 1020.80 1021.38 1021.97 1022.54 1023.25 1023.84 1024.50 1025.12 1025.73 1026.28 1026.81 1027.32 1027.74 1028.21 1028.70 1029.27 1029.83
1007.82 1008.20 1008.73 1009.26 1009.92 1010.46 1010.87 1011.13 1011.42 1011.91 1012.55 1013.14 1013.67 1014.20 1014.82 1015.41 1015.69 1016.13 1016.26 1016.53 1017.26 1017.67 1018.10 1018.66 1019.22 1019.76 1020.33 1020.95 1021.47 1022.08 1022.70 1023.28 1023.82 1024.43 1025.08 1025.68 1026.21 1026.79 1027.34 1027.79 1028.29 1028.70 1029.16 1029.73
1008.87 1009.27 1009.63 1010.02 1010.33 1010.86 1011.23 1011.54 1011.93 1012.33 1012.90 1013.37 1013.86 1014.38 1014.90 1015.34 1015.70 1016.23 1016.81 1017.00 1017.42 1018.01 1018.43 1018.96 1019.40 1019.91 1020.46 1021.00 1021.51 1022.12 1022.71 1023.28 1023.84 1024.40 1024.97 1025.52 1026.05 1026.51 1027.03 1027.62 1028.12 1028.63 1029.21 1029.78
1009.47 1009.85 1010.20 1010.47 1010.85 1011.29 1011.71 1012.13 1012.45 1012.80 1013.17 1013.61 1014.03 1014.51 1015.09 1015.73 1016.25 1016.25 1016.53 1017.07 1017.64 1018.21 1018.68 1019.17 1019.66 1020.14 1020.65 1021.15 1021.64 1022.15 1022.72 1023.24 1023.77 1024.32 1024.92 1025.45 1025.96 1026.46 1027.00 1027.52 1028.15 1028.68 1029.24 1029.82
1009.64 1010.08 1010.52 1010.95 1011.31 1011.63 1012.03 1012.44 1012.79 1013.18 1013.55 1013.93 1014.39 1014.89 1015.29 1015.59 1016.05 1016.68 1016.93 1017.46 1018.00 1018.50 1019.00 1019.35 1019.87 1020.44 1020.92 1021.35 1021.86 1022.38 1022.89 1023.40 1023.93 1024.47 1025.06 1025.59 1026.13 1026.66 1027.15 1027.65 1028.23 1028.75 1029.38 1029.92
1009.88 1010.20 1010.57 1010.88 1011.16 1011.59 1012.07 1012.54 1013.00 1013.43 1013.85 1014.35 1014.75 1015.18 1015.80 1015.81 1016.29 1016.84 1017.30 1017.72 1018.22 1018.69 1019.21 1019.67 1020.11 1020.57 1021.04 1021.51 1022.01 1022.55 1023.10 1023.68 1024.18 1024.71 1025.29 1025.85 1026.36 1026.85 1027.39 1027.97 1028.55 1028.93 1029.51 1030.15
1009.91 1010.18 1010.55 1010.91 1011.20 1011.58 1011.98 1012.43 1013.04 1013.51 1013.96 1014.42 1014.95 1015.24 1015.81 1016.29 1016.72 1017.16 1017.64 1018.13 1018.52 1018.96 1019.42 1019.78 1020.29 1020.73 1021.20 1021.75 1022.27 1022.80 1023.35 1023.92 1024.42 1024.92 1025.56 1026.08 1026.54 1026.92 1027.41 1028.08 1028.63 1029.23 1029.79 1030.31
Thickness
5526 5533 5542 5548 5555 5553 5545 5544 5538 5541 5546 5547 5546 5548 5545 5541 5529 5509 5498 5485 5476 5465 5452 5443 5432 5423 5414 5407 5397 5392 5385 5381 5376 5372 5370 5369 5370 5369 5369 5366 5364 5364 5365 5364
5499 5526 5530 5530 5540 5543 5538 5539 5539 5535 5538 5545 5547 5544 5531 5532 5520 5508 5500 5488 5476 5463 5450 5439 5429 5418 5409 5400 5392 5385 5376 5372 5367 5363 5362 5362 5362 5362 5362 5360 5359 5359 5359 5359
5499 5520 5517 5512 5527 5533 5530 5533 5532 5523 5542 5539 5536 5535 5533 5524 5518 5510 5498 5488 5474 5461 5449 5437 5425 5415 5404 5395 5386 5377 5371 5362 5358 5355 5354 5354 5356 5355 5353 5352 5353 5353 5353 5353
5492 5498 5489 5530 5535 5533 5523 5528 5527 5535 5536 5536 5534 5519 5514 5518 5510 5501 5492 5479 5468 5456 5444 5431 5419 5408 5399 5388 5378 5371 5367 5359 5351 5349 5348 5347 5347 5346 5344 5344 5345 5345 5345 5346
5471 5474 5492 5523 5526 5519 5512 5533 5527 5524 5527 5523 5503 5500 5494 5501 5501 5491 5482 5474 5463 5453 5439 5427 5415 5404 5393 5381 5372 5367 5360 5355 5350 5346 5343 5342 5340 5339 5337 5336 5336 5338 5337 5337
5457 5467 5468 5515 5527 5527 5515 5517 5527 5527 5519 5505 5495 5468 5465 5481 5480 5473 5459 5455 5448 5439 5431 5419 5408 5399 5387 5376 5368 5361 5355 5350 5347 5344 5343 5340 5337 5334 5332 5330 5329 5331 5330 5328
5462 5465 5473 5504 5515 5518 5492 5513 5529 5524 5511 5496 5485 5481 5479 5465 5458 5450 5439 5440 5434 5429 5421 5410 5401 5391 5378 5370 5363 5355 5350 5345 5341 5338 5337 5334 5332 5331 5328 5324 5323 5322 5321 5319
5454 5459 5467 5503 5502 5502 5499 5511 5516 5506 5496 5474 5470 5455 5451 5444 5439 5437 5431 5422 5416 5413 5403 5392 5390 5382 5370 5364 5354 5348 5343 5337 5333 5330 5328 5326 5325 5323 5323 5318 5316 5314 5313 5311
5467 5472 5483 5493 5501 5505 5498 5498 5502 5493 5476 5466 5455 5451 5442 5437 5432 5426 5418 5410 5401 5399 5386 5376 5376 5374 5364 5354 5348 5341 5334 5328 5324 5321 5317 5314 5312 5310 5310 5309 5307 5305 5302 5298
5461 5478 5481 5485 5491 5493 5497 5499 5495 5487 5471 5461 5456 5443 5441 5429 5424 5418 5408 5401 5393 5384 5376 5367 5362 5362 5360 5348 5342 5335 5327 5320 5314 5311 5305 5303 5301 5298 5297 5294 5294 5291 5287 5283
5454 5462 5473 5479 5480 5478 5481 5482 5482 5475 5470 5463 5452 5441 5438 5427 5418 5411 5402 5393 5386 5379 5371 5362 5355 5349 5345 5340 5333 5326 5318 5312 5307 5302 5296 5291 5288 5287 5285 5282 5284 5280 5273 5272
5440 5460 5467 5465 5472 5471 5469 5472 5475 5474 5465 5457 5450 5441 5433 5423 5415 5406 5397 5388 5379 5371 5365 5356 5349 5342 5336 5330 5324 5317 5310 5304 5298 5291 5286 5282 5280 5275 5274 5273 5271 5269 5266 5264
5454 5459 5458 5460 5462 5467 5466 5467 5469 5465 5461 5452 5445 5438 5429 5420 5412 5404 5395 5385 5376 5369 5361 5352 5344 5337 5330 5323 5316 5310 5304 5298 5291 5284 5277 5272 5269 5266 5263 5259 5258 5256 5254 5252
5448 5447 5453 5450 5450 5457 5461 5461 5462 5461 5455 5450 5444 5433 5424 5416 5408 5400 5391 5383 5373 5365 5356 5349 5341 5333 5325 5317 5308 5301 5295 5289 5283 5277 5271 5264 5259 5255 5252 5248 5243 5239 5240 5238
5441 5442 5446 5452 5450 5449 5451 5447 5446 5443 5441 5437 5432 5426 5417 5410 5404 5398 5387 5378 5369 5359 5351 5344 5336 5327 5319 5310 5303 5296 5290 5282 5276 5270 5264 5257 5251 5247 5243 5237 5232 5229 5226 5225
5433 5434 5437 5442 5445 5442 5441 5439 5437 5432 5430 5425 5420 5415 5411 5409 5401 5390 5382 5373 5364 5355 5348 5340 5331 5323 5315 5307 5299 5291 5284 5276 5269 5262 5255 5249 5245 5240 5236 5231 5224 5219 5214 5211
5427 5426 5428 5433 5431 5431 5431 5430 5429 5426 5420 5413 5410 5407 5403 5397 5385 5378 5374 5370 5363 5354 5346 5336 5326 5316 5309 5301 5294 5284 5276 5267 5261 5254 5249 5244 5239 5233 5228 5222 5216 5210 5204 5201
5426 5427 5429 5434 5429 5423 5417 5416 5413 5411 5408 5403 5392 5389 5384 5380 5376 5366 5360 5354 5346 5337 5333 5328 5319 5310 5301 5294 5286 5278 5269 5261 5253 5246 5240 5234 5229 5224 5219 5213 5204 5199 5193 5188
5422 5419 5419 5423 5419 5414 5404 5398 5394 5391 5384 5381 5379 5371 5365 5359 5356 5350 5348 5345 5338 5330 5319 5318 5311 5302 5293 5285 5278 5269 5261 5253 5245 5238 5232 5224 5217 5212 5207 5202 5196 5190 5184 5178
5401 5401 5402 5399 5393 5392 5382 5374 5374 5370 5363 5366 5360 5354 5346 5338 5342 5340 5340 5331 5326 5324 5315 5308 5300 5292 5284 5276 5268 5260 5251 5242 5235 5227 5221 5214 5207 5200 5196 5191 5186 5180 5174 5169
5385 5381 5383 5381 5370 5363 5362 5360 5362 5357 5348 5350 5348 5340 5337 5327 5330 5331 5325 5319 5311 5309 5304 5296 5289 5281 5273 5264 5256 5249 5241 5233 5226 5218 5210 5203 5197 5191 5186 5181 5175 5170 5164 5158
5373 5371 5366 5363 5359 5357 5354 5353 5352 5350 5348 5342 5336 5335 5330 5323 5320 5314 5309 5310 5301 5294 5289 5282 5276 5269 5261 5252 5246 5238 5230 5223 5217 5210 5202 5195 5189 5182 5176 5171 5165 5160 5155 5150
5358 5354 5353 5352 5351 5347 5344 5343 5341 5339 5336 5333 5329 5325 5321 5315 5312 5307 5299 5296 5290 5281 5277 5270 5263 5257 5250 5242 5235 5228 5221 5214 5208 5201 5194 5188 5181 5176 5170 5164 5158 5152 5145 5139
5344 5340 5338 5338 5337 5335 5333 5329 5329 5327 5325 5322 5318 5314 5309 5302 5294 5296 5291 5285 5279 5272 5265 5258 5252 5246 5239 5232 5226 5219 5212 5206 5200 5193 5185 5179 5173 5167 5161 5155 5148 5142 5135 5129
5341 5337 5333 5328 5327 5327 5325 5322 5320 5317 5315 5312 5309 5303 5300 5295 5289 5282 5278 5272 5266 5259 5253 5247 5241 5234 5227 5222 5215 5208 5202 5196 5189 5183 5175 5169 5162 5156 5150 5145 5138 5132 5126 5120
5335 5333 5330 5328 5326 5322 5319 5316 5313 5309 5305 5301 5297 5289 5284 5283 5279 5273 5266 5261 5255 5249 5242 5236 5230 5224 5218 5212 5205 5198 5192 5185 5178 5171 5165 5158 5152 5146 5140 5134 5128 5122 5115 5108
5330 5328 5326 5324 5321 5318 5314 5311 5302 5298 5294 5289 5284 5283 5278 5271 5266 5261 5254 5248 5244 5238 5232 5226 5220 5214 5207 5200 5194 5187 5181 5174 5168 5161 5155 5148 5142 5137 5131 5124 5118 5111 5103 5096